Find Starlink 33740

NORAD ID: 63451 Int'l Des: 2025-069 Owner: SPXS Country: US Constellation: starlink operational
LEOCIRCULAR

現在のビュー

3D地球を読み込み中...

About Starlink 33740

Starlink 33740 (NORAD 63451) is a starlink constellation satellite (v2 mini) launched Apr 4, 2025 by SPXS of US. It operates in LEO, CIRCULAR orbit with a mass of 575.00 kg.

次回通過

Passes for default location (London). Set your location on the main map for personalized predictions.

高度履歴

Loading altitude history...

軌道要素

1 63451U 25069U 26263.41966162 .00010993 00000-0 33596-3 0 9996
2 63451 53.1587 308.3787 0001046 73.1568 286.9549 15.34403367 83243
Epoch: Sep 20, 2026 • Age: 17 hours

現在のステータス

高度 468.3 km
遠地点 / 近地点 N/A
速度 7.63 km/s
衛星直下点 -18.92°S, 101.14°E
打ち上げ日 Apr 4, 2025
運用期間 1.4 years
タイプ internet

技術仕様

分類 Payload
質量 575.00 kg
乾燥質量 530.00 kg
長さ 0.30 m
スパン 29.00 m
形状 ? Box + pan
製造者 SPXS
バスタイプ Starlink V2MO
フェーズステータス In Orbit
所有者/国 SPXS/US

Most Searched